Overview Statistics Trail Chart Weather Telemetry Raw packets
 

This is the latest recevied weather packets stored in our database for station/object W8KVG. If no packets are shown the sender has not sent any weather packets the latest 10 day(s).

<< 26 27 28 29 30 31 32 >>
Time Temp. Humidity Pressure Rain* Wind** Luminosity Snow
1777773562 2.78° C 84% 1015.7 hPa 0 mm - 0 W/m² -
1777773259 3.33° C 83% 1015.6 hPa 0 mm - 0 W/m² -
1777772955 3.89° C 81% 1015.8 hPa 0 mm - 0 W/m² -
1777772652 3.89° C 81% 1015.9 hPa 0 mm - 0 W/m² -
1777772350 3.89° C 81% 1015.8 hPa 0 mm - 0 W/m² -
1777772047 4.44° C 81% 1015.8 hPa 0 mm - 0 W/m² -
1777771744 4.44° C 80% 1015.7 hPa 0 mm - 0 W/m² -
1777771442 3.89° C 79% 1015.7 hPa 0 mm - 0 W/m² -
1777771138 4.44° C 79% 1015.9 hPa 0 mm - 0 W/m² -
1777770835 4.44° C 78% 1015.7 hPa 0 mm - 0 W/m² -
1777770531 4.44° C 76% 1015.7 hPa 0 mm - 0 W/m² -
1777770229 5° C 76% 1015.6 hPa 0 mm - 0 W/m² -
1777769925 5° C 77% 1015.5 hPa 0 mm - 0 W/m² -
1777769623 5° C 76% 1015.5 hPa 0 mm - 0 W/m² -
1777769319 5° C 76% 1015.8 hPa 0 mm - 0 W/m² -
1777769017 5° C 75% 1015.5 hPa 0 mm - 0 W/m² -
1777768713 5° C 78% 1015.6 hPa 0 mm - 0 W/m² -
1777768410 4.44° C 77% 1015.4 hPa 0 mm - 0 W/m² -
1777768102 4.44° C 77% 1015.3 hPa 0 mm - 0 W/m² -
1777767799 5° C 75% 1015.5 hPa 0 mm - 1 W/m² -
1777767495 5° C 75% 1015.2 hPa 0 mm - 1 W/m² -
1777767192 5° C 77% 1015.2 hPa 0 mm - 1 W/m² -
1777766889 5° C 77% 1015.1 hPa 0 mm - 2 W/m² -
1777766587 5° C 76% 1015.2 hPa 0 mm - 3 W/m² -
1777766283 5° C 76% 1015.1 hPa 0 mm - 5 W/m² -

* Rain latest hour (hover to see other rain measurements)
** Current wind speed in m/s (hover to see current wind gust speed)